Location: Saluda
(35.2377°N, 82.3468°W)
Time: 20:25:55
(UTC+00:00)

Transit 2A - Pass Details

Date: 09 October 2022
Orbit: 598 x 959 km, 66.7° (Epoch: 03 December)

Event Time Altitude Azimuth Distance (km) Brightness Sun altitude
Rises 03:50:42 0° 249° (WSW) 2,902 - -54.9°
Reaches altitude 10° 03:53:54 10° 273° (W) 1,962 - -55.3°
Maximum altitude 03:56:25 15° 308° (NW) 1,648 - -55.6°
Drops below altitude 10° 03:58:54 10° 344° (NNW) 1,940 - -55.9°
Sets 04:02:03 0° 8° (N) 2,851 - -56.3°
